Location: Norton
(51.3000°N, 0.8167°E)
Time: 17:59:23
(UTC+00:00)

SJ-6B - Pass Details

Date: 03 March 2021
Orbit: 509 x 581 km, 97.6° (Epoch: 13 April)

Event Time Altitude Azimuth Distance (km) Brightness Sun altitude
Exits shadow 19:23:03 19° 151° (SSE) 1,396 4.5 -16.7°
Maximum altitude 19:25:54 66° 73° (ENE) 630 2.8 -17.1°
Drops below altitude 10° 19:29:55 10° 351° (N) 1,872 5.8 -17.7°
Sets 19:32:04 0° 349° (N) 2,763 6.7 -18.0°
